Time,TemperatureF,DewpointF,PressureIn,WindDirection,WindDirectionDegrees,WindSpeedMPH,WindSpeedGustMPH,Humidity,HourlyPrecipIn,Conditions,Clouds,dailyrainin,SoftwareType,DateUTC
2017-04-23 00:04:00,79.2,77.2,29.85,SE,135,14.9,18.6,72,0.00,,,0.00,,2017-04-23 04:04:00,
2017-04-23 00:09:00,79.2,77.2,29.85,SE,135,9.9,12.3,72,0.00,,,0.00,,2017-04-23 04:09:00,
2017-04-23 00:14:00,79.2,77.2,29.85,SE,135,9.8,13.0,72,0.00,,,0.00,,2017-04-23 04:14:00,
2017-04-23 00:19:00,79.2,77.2,29.85,SE,135,8.7,13.0,72,0.00,,,0.00,,2017-04-23 04:19:00,
2017-04-23 00:24:00,79.2,77.2,29.85,SSE,157,11.4,16.8,72,0.00,,,0.00,,2017-04-23 04:24:00,
2017-04-23 00:29:00,79.1,77.2,29.85,SE,135,14.3,17.9,72,0.00,,,0.00,,2017-04-23 04:29:00,
2017-04-23 00:34:00,79.1,77.2,29.85,SE,135,10.0,14.1,72,0.00,,,0.00,,2017-04-23 04:34:00,
2017-04-23 00:39:00,79.1,77.2,29.85,SE,135,11.7,17.7,72,0.00,,,0.00,,2017-04-23 04:39:00,
2017-04-23 00:44:00,79.1,77.2,29.84,SE,135,14.0,16.6,73,0.00,,,0.00,,2017-04-23 04:44:00,
2017-04-23 00:50:00,79.2,77.2,29.84,SSE,157,12.4,16.6,74,0.00,,,0.00,,2017-04-23 04:50:00,
2017-04-23 00:55:00,79.1,77.2,29.85,SSE,157,11.8,16.6,75,0.00,,,0.00,,2017-04-23 04:55:00,
2017-04-23 01:00:00,78.9,77.2,29.84,SSE,157,18.2,23.5,75,0.00,,,0.00,,2017-04-23 05:00:00,
2017-04-23 01:05:00,78.7,77.2,29.84,SE,135,17.0,21.9,75,0.00,,,0.00,,2017-04-23 05:05:00,
2017-04-23 01:10:00,78.6,77.2,29.84,SSE,157,12.2,14.1,76,0.00,,,0.00,,2017-04-23 05:10:00,
2017-04-23 01:15:00,78.6,77.2,29.84,ESE,112,14.4,18.1,75,0.00,,,0.00,,2017-04-23 05:15:00,
2017-04-23 01:20:00,78.5,77.1,29.84,SSE,157,9.0,10.5,75,0.00,,,0.00,,2017-04-23 05:20:00,
2017-04-23 01:25:00,78.5,77.1,29.83,SE,135,8.6,12.3,75,0.00,,,0.00,,2017-04-23 05:25:00,
2017-04-23 01:30:00,78.4,77.1,29.83,SSE,157,7.9,9.6,75,0.00,,,0.00,,2017-04-23 05:30:00,
2017-04-23 01:35:00,78.5,77.1,29.84,SSE,157,7.2,11.0,75,0.00,,,0.00,,2017-04-23 05:35:00,
2017-04-23 01:40:00,78.3,77.1,29.84,SE,135,14.0,14.1,74,0.00,,,0.00,,2017-04-23 05:40:00,
2017-04-23 01:45:00,78.2,77.2,29.84,SSE,157,14.0,19.0,74,0.00,,,0.00,,2017-04-23 05:45:00,
2017-04-23 01:50:00,78.2,77.1,29.84,SE,135,9.4,9.4,74,0.00,,,0.00,,2017-04-23 05:50:00,
2017-04-23 01:55:00,78.3,77.1,29.84,SE,135,7.5,10.1,74,0.00,,,0.00,,2017-04-23 05:55:00,
2017-04-23 02:00:00,78.4,77.1,29.84,SSE,157,6.6,12.1,73,0.00,,,0.00,,2017-04-23 06:00:00,
2017-04-23 02:05:00,78.4,77.1,29.84,SSE,157,8.3,13.6,74,0.00,,,0.00,,2017-04-23 06:05:00,
2017-04-23 02:10:00,78.5,77.1,29.83,SSE,157,10.2,14.8,74,0.00,,,0.00,,2017-04-23 06:10:00,
2017-04-23 02:15:00,78.5,77.1,29.83,SE,135,8.6,11.4,74,0.00,,,0.00,,2017-04-23 06:15:00,
2017-04-23 02:20:00,78.6,77.1,29.83,SE,135,3.1,9.6,74,0.00,,,0.00,,2017-04-23 06:20:00,
2017-04-23 02:25:00,78.6,77.1,29.82,SE,135,7.3,9.8,74,0.00,,,0.00,,2017-04-23 06:25:00,
2017-04-23 02:30:00,78.7,77.0,29.82,SE,135,9.8,11.4,74,0.00,,,0.00,,2017-04-23 06:30:00,
2017-04-23 02:35:00,78.7,77.1,29.82,SE,135,3.0,5.1,75,0.00,,,0.00,,2017-04-23 06:35:00,
2017-04-23 02:40:00,78.8,77.1,29.82,SSE,157,5.5,8.7,74,0.00,,,0.00,,2017-04-23 06:40:00,
2017-04-23 02:45:00,78.9,77.0,29.82,SE,135,6.9,9.2,75,0.00,,,0.00,,2017-04-23 06:45:00,
2017-04-23 02:46:00,78.9,77.1,29.82,SSE,157,10.5,14.1,75,0.00,,,0.00,,2017-04-23 06:46:00,
2017-04-23 02:51:00,78.9,77.1,29.81,SSE,157,10.1,13.6,75,0.00,,,0.00,,2017-04-23 06:51:00,
2017-04-23 02:56:00,78.9,77.1,29.81,ESE,112,5.4,5.6,75,0.00,,,0.00,,2017-04-23 06:56:00,
2017-04-23 03:01:00,78.9,77.0,29.81,ESE,112,8.6,11.4,75,0.00,,,0.00,,2017-04-23 07:01:00,
2017-04-23 03:06:00,78.9,77.0,29.81,SE,135,6.7,6.7,75,0.00,,,0.00,,2017-04-23 07:06:00,
2017-04-23 03:11:00,78.9,77.0,29.81,SE,135,4.4,6.7,75,0.00,,,0.00,,2017-04-23 07:11:00,
2017-04-23 03:16:00,78.9,77.0,29.81,SE,135,7.2,12.1,75,0.00,,,0.00,,2017-04-23 07:16:00,
2017-04-23 03:21:00,78.8,77.0,29.80,SSE,157,8.0,10.1,75,0.00,,,0.00,,2017-04-23 07:21:00,
2017-04-23 03:26:00,78.9,77.0,29.80,SE,135,9.9,12.1,75,0.00,,,0.00,,2017-04-23 07:26:00,
2017-04-23 03:31:00,78.7,77.0,29.80,SE,135,2.1,4.0,75,0.00,,,0.00,,2017-04-23 07:31:00,
2017-04-23 03:36:00,78.8,77.0,29.80,SE,135,10.5,13.2,75,0.00,,,0.00,,2017-04-23 07:36:00,
2017-04-23 03:41:00,78.8,77.0,29.80,SSE,157,9.7,12.1,75,0.00,,,0.00,,2017-04-23 07:41:00,
2017-04-23 03:46:00,78.8,77.0,29.80,SE,135,8.7,12.5,75,0.00,,,0.00,,2017-04-23 07:46:00,
2017-04-23 03:51:00,78.8,77.0,29.80,SE,135,9.8,11.9,75,0.00,,,0.00,,2017-04-23 07:51:00,
2017-04-23 03:56:00,78.8,77.0,29.79,SSE,157,9.5,16.3,76,0.00,,,0.00,,2017-04-23 07:56:00,
2017-04-23 04:01:00,78.6,77.0,29.79,SE,135,4.6,6.5,76,0.00,,,0.00,,2017-04-23 08:01:00,
2017-04-23 04:06:00,78.7,77.0,29.79,SSE,157,1.1,5.4,76,0.00,,,0.00,,2017-04-23 08:06:00,
2017-04-23 04:11:00,78.7,77.0,29.79,SE,135,5.2,5.8,76,0.00,,,0.00,,2017-04-23 08:11:00,
2017-04-23 04:16:00,78.7,77.0,29.79,ESE,112,4.4,8.1,76,0.00,,,0.00,,2017-04-23 08:16:00,
2017-04-23 04:21:00,78.6,77.0,29.79,SSE,157,5.9,6.9,76,0.00,,,0.00,,2017-04-23 08:21:00,
2017-04-23 04:26:00,78.7,77.0,29.79,SE,135,4.7,9.4,76,0.00,,,0.00,,2017-04-23 08:26:00,
2017-04-23 04:31:00,78.7,77.0,29.79,SSE,157,5.8,6.3,76,0.00,,,0.00,,2017-04-23 08:31:00,
2017-04-23 04:36:00,78.7,77.0,29.79,SE,135,10.4,15.0,76,0.00,,,0.00,,2017-04-23 08:36:00,
2017-04-23 04:41:00,78.6,77.0,29.79,South,180,6.5,8.3,76,0.00,,,0.00,,2017-04-23 08:41:00,
2017-04-23 04:42:00,78.7,77.0,29.79,SSE,157,6.5,11.0,76,0.00,,,0.00,,2017-04-23 08:42:00,
2017-04-23 04:47:00,78.7,77.0,29.79,SSE,157,6.4,12.3,75,0.00,,,0.00,,2017-04-23 08:47:00,
2017-04-23 04:52:00,78.6,77.0,29.78,SSE,157,7.0,9.4,75,0.00,,,0.00,,2017-04-23 08:52:00,
2017-04-23 04:57:00,78.5,77.0,29.78,South,180,5.0,6.7,75,0.00,,,0.00,,2017-04-23 08:57:00,
2017-04-23 05:02:00,78.5,77.0,29.78,SE,135,6.6,9.6,76,0.00,,,0.00,,2017-04-23 09:02:00,
2017-04-23 05:07:00,78.2,77.0,29.78,SSE,157,8.1,11.4,78,0.00,,,0.00,,2017-04-23 09:07:00,
2017-04-23 05:12:00,77.8,77.0,29.78,SE,135,6.5,8.9,79,0.00,,,0.00,,2017-04-23 09:12:00,
2017-04-23 05:17:00,77.6,77.0,29.78,SSE,157,5.0,7.4,79,0.00,,,0.00,,2017-04-23 09:17:00,
2017-04-23 05:22:00,77.4,77.0,29.77,SSE,157,6.4,8.1,80,0.00,,,0.00,,2017-04-23 09:22:00,
2017-04-23 05:27:00,77.4,77.0,29.78,SSE,157,5.3,11.0,80,0.00,,,0.00,,2017-04-23 09:27:00,
2017-04-23 05:32:00,77.4,77.0,29.78,SSE,157,5.5,6.0,81,0.00,,,0.00,,2017-04-23 09:32:00,
2017-04-23 05:37:00,77.5,76.9,29.78,SSE,157,4.3,7.2,80,0.00,,,0.00,,2017-04-23 09:37:00,
2017-04-23 05:42:00,77.6,77.0,29.78,SSE,157,3.5,4.5,80,0.00,,,0.00,,2017-04-23 09:42:00,
2017-04-23 05:47:00,77.7,77.0,29.78,SSE,157,4.2,6.0,80,0.00,,,0.00,,2017-04-23 09:47:00,
2017-04-23 05:52:00,77.8,77.0,29.78,South,180,4.5,6.9,80,0.00,,,0.00,,2017-04-23 09:52:00,
2017-04-23 05:57:00,77.9,77.0,29.78,SSE,157,3.5,5.4,80,0.00,,,0.00,,2017-04-23 09:57:00,
2017-04-23 06:02:00,78.0,77.0,29.78,SSE,157,4.1,6.0,80,0.00,,,0.00,,2017-04-23 10:02:00,
2017-04-23 06:07:00,78.0,77.0,29.78,SSE,157,2.8,3.8,79,0.00,,,0.00,,2017-04-23 10:07:00,
2017-04-23 06:12:00,78.2,76.9,29.78,South,180,0.0,0.0,79,0.00,,,0.00,,2017-04-23 10:12:00,
2017-04-23 06:17:00,78.3,76.9,29.78,SW,225,0.2,2.2,79,0.00,,,0.00,,2017-04-23 10:17:00,
2017-04-23 06:22:00,78.4,76.9,29.78,SSE,157,0.0,0.0,79,0.00,,,0.00,,2017-04-23 10:22:00,
2017-04-23 06:27:00,78.4,77.0,29.78,SSW,202,0.4,2.7,79,0.00,,,0.00,,2017-04-23 10:27:00,
2017-04-23 06:32:00,78.3,76.9,29.77,South,180,0.2,2.0,79,0.00,,,0.00,,2017-04-23 10:32:00,
2017-04-23 06:37:00,78.3,76.9,29.78,South,180,1.0,2.2,79,0.00,,,0.00,,2017-04-23 10:37:00,
2017-04-23 06:42:00,78.4,76.9,29.78,South,180,0.0,0.0,79,0.00,,,0.00,,2017-04-23 10:42:00,
2017-04-23 06:47:00,78.4,76.9,29.78,SSE,157,1.8,3.1,79,0.00,,,0.00,,2017-04-23 10:47:00,
2017-04-23 06:52:00,78.4,76.9,29.78,South,180,0.1,0.0,79,0.00,,,0.00,,2017-04-23 10:52:00,
2017-04-23 06:57:00,78.5,76.9,29.78,South,180,0.0,0.0,79,0.00,,,0.00,,2017-04-23 10:57:00,
2017-04-23 07:02:00,78.5,76.9,29.78,South,180,1.1,1.6,79,0.00,,,0.00,,2017-04-23 11:02:00,
2017-04-23 07:07:00,78.5,76.9,29.78,South,180,0.0,0.0,79,0.00,,,0.00,,2017-04-23 11:07:00,
2017-04-23 07:12:00,78.6,76.9,29.78,South,180,0.0,0.0,79,0.00,,,0.00,,2017-04-23 11:12:00,
2017-04-23 07:17:00,78.7,76.9,29.79,South,180,0.0,0.0,79,0.00,,,0.00,,2017-04-23 11:17:00,
2017-04-23 07:22:00,78.8,76.9,29.79,SSW,202,0.0,0.0,79,0.00,,,0.00,,2017-04-23 11:22:00,
2017-04-23 07:27:00,78.8,76.9,29.79,West,270,0.4,2.2,79,0.00,,,0.00,,2017-04-23 11:27:00,
2017-04-23 07:32:00,78.0,77.0,29.79,NW,315,8.2,11.9,76,0.00,,,0.00,,2017-04-23 11:32:00,
2017-04-23 07:37:00,77.1,76.9,29.80,NW,315,0.2,2.7,76,0.00,,,0.00,,2017-04-23 11:37:00,
2017-04-23 07:42:00,76.4,76.9,29.80,NNW,337,5.3,6.5,77,0.00,,,0.00,,2017-04-23 11:42:00,
2017-04-23 07:47:00,75.4,76.9,29.80,NW,315,7.4,9.6,79,0.00,,,0.00,,2017-04-23 11:47:00,
2017-04-23 07:52:00,74.2,76.9,29.80,NNW,337,6.4,9.6,81,0.00,,,0.00,,2017-04-23 11:52:00,
2017-04-23 07:57:00,73.7,76.9,29.80,NW,315,8.5,9.8,82,0.00,,,0.00,,2017-04-23 11:57:00,
2017-04-23 08:02:00,72.7,76.9,29.81,North,0,9.1,12.1,84,0.00,,,0.00,,2017-04-23 12:02:00,
2017-04-23 08:07:00,71.2,76.9,29.81,NNW,337,10.8,12.5,86,0.00,,,0.00,,2017-04-23 12:07:00,
2017-04-23 08:12:00,71.5,76.9,29.81,NNW,337,9.0,13.9,88,0.00,,,0.00,,2017-04-23 12:12:00,
2017-04-23 08:17:00,71.3,76.8,29.81,North,0,11.8,14.5,88,0.00,,,0.00,,2017-04-23 12:17:00,
2017-04-23 08:22:00,70.7,76.8,29.81,NNW,337,10.9,16.3,89,0.00,,,0.00,,2017-04-23 12:22:00,
2017-04-23 08:27:00,70.5,76.9,29.81,North,0,12.9,14.8,89,0.00,,,0.00,,2017-04-23 12:27:00,
2017-04-23 08:32:00,70.1,76.9,29.81,NNW,337,12.4,18.1,90,0.00,,,0.00,,2017-04-23 12:32:00,
2017-04-23 08:37:00,70.4,76.9,29.81,NNW,337,9.1,11.4,91,0.00,,,0.00,,2017-04-23 12:37:00,
2017-04-23 08:42:00,70.6,76.9,29.83,NNW,337,14.8,25.3,90,0.00,,,0.00,,2017-04-23 12:42:00,
2017-04-23 08:47:00,71.1,76.9,29.83,NNE,22,8.7,10.5,90,0.00,,,0.00,,2017-04-23 12:47:00,
2017-04-23 08:52:00,71.4,76.9,29.83,NNE,22,12.5,20.4,90,0.00,,,0.00,,2017-04-23 12:52:00,
2017-04-23 08:57:00,71.3,76.8,29.83,North,0,8.4,11.6,90,0.00,,,0.00,,2017-04-23 12:57:00,
2017-04-23 09:02:00,71.5,76.9,29.85,NW,315,6.6,7.8,90,0.00,,,0.00,,2017-04-23 13:02:00,
2017-04-23 09:07:00,71.8,76.8,29.86,SSW,202,5.0,5.0,89,0.00,,,0.00,,2017-04-23 13:07:00,
2017-04-23 09:12:00,72.2,76.8,29.85,ENE,67,1.2,7.4,88,0.00,,,0.00,,2017-04-23 13:12:00,
2017-04-23 09:17:00,72.0,76.9,29.85,NNW,337,9.6,11.0,88,0.00,,,0.00,,2017-04-23 13:17:00,
2017-04-23 09:22:00,69.9,76.8,29.84,North,0,13.5,16.8,89,0.00,,,0.00,,2017-04-23 13:22:00,
2017-04-23 09:27:00,69.1,76.8,29.84,North,0,16.9,22.4,91,0.00,,,0.00,,2017-04-23 13:27:00,
2017-04-23 09:32:00,69.1,76.8,29.84,NNE,22,13.1,21.0,91,0.00,,,0.00,,2017-04-23 13:32:00,
2017-04-23 09:37:00,69.0,76.8,29.85,NNE,22,15.8,18.8,91,0.00,,,0.00,,2017-04-23 13:37:00,
2017-04-23 09:42:00,70.0,76.8,29.85,NNE,22,12.4,14.5,92,0.00,,,0.00,,2017-04-23 13:42:00,
2017-04-23 09:47:00,70.3,76.8,29.85,NNE,22,12.6,17.9,92,0.00,,,0.00,,2017-04-23 13:47:00,
2017-04-23 09:52:00,70.2,76.8,29.84,NNE,22,14.1,15.9,91,0.00,,,0.00,,2017-04-23 13:52:00,
2017-04-23 09:57:00,70.7,76.8,29.84,NNE,22,9.6,12.1,92,0.00,,,0.00,,2017-04-23 13:57:00,
2017-04-23 10:02:00,70.6,76.7,29.84,NNE,22,11.5,14.5,92,0.00,,,0.00,,2017-04-23 14:02:00,
2017-04-23 10:07:00,70.5,76.8,29.84,NNE,22,11.8,14.3,92,0.00,,,0.00,,2017-04-23 14:07:00,
2017-04-23 10:12:00,70.1,76.7,29.84,NNE,22,11.8,13.4,92,0.00,,,0.00,,2017-04-23 14:12:00,
2017-04-23 10:17:00,70.1,76.7,29.83,NNE,22,12.5,16.6,92,0.00,,,0.00,,2017-04-23 14:17:00,
2017-04-23 10:22:00,70.0,76.7,29.83,NE,45,10.6,13.9,91,0.00,,,0.00,,2017-04-23 14:22:00,
2017-04-23 10:27:00,70.2,76.7,29.83,NNE,22,8.5,10.7,92,0.00,,,0.00,,2017-04-23 14:27:00,
2017-04-23 10:30:00,70.5,76.7,29.83,NE,45,10.9,14.8,92,0.00,,,0.00,,2017-04-23 14:30:00,
2017-04-23 10:35:00,69.6,76.7,29.84,North,0,9.3,13.9,91,0.00,,,0.00,,2017-04-23 14:35:00,
2017-04-23 10:40:00,69.2,76.7,29.84,North,0,8.4,12.8,91,0.00,,,0.00,,2017-04-23 14:40:00,
2017-04-23 10:45:00,68.8,76.7,29.84,NNW,337,9.7,11.0,91,0.00,,,0.00,,2017-04-23 14:45:00,
2017-04-23 10:50:00,68.8,76.7,29.84,North,0,9.4,11.0,91,0.00,,,0.00,,2017-04-23 14:50:00,
2017-04-23 10:55:00,68.3,76.7,29.84,NNW,337,10.2,12.3,91,0.00,,,0.00,,2017-04-23 14:55:00,
2017-04-23 11:00:00,68.6,76.7,29.84,North,0,9.6,12.5,92,0.00,,,0.00,,2017-04-23 15:00:00,
2017-04-23 11:05:00,68.9,76.7,29.85,NNE,22,6.1,8.5,92,0.00,,,0.00,,2017-04-23 15:05:00,
2017-04-23 11:10:00,69.2,76.7,29.85,North,0,6.6,9.2,91,0.00,,,0.00,,2017-04-23 15:10:00,
2017-04-23 11:15:00,69.0,76.7,29.84,North,0,8.2,9.4,91,0.00,,,0.00,,2017-04-23 15:15:00,
2017-04-23 11:20:00,68.9,76.7,29.84,North,0,9.9,11.0,91,0.00,,,0.00,,2017-04-23 15:20:00,
2017-04-23 11:25:00,69.0,76.7,29.84,NNW,337,7.4,8.7,91,0.00,,,0.00,,2017-04-23 15:25:00,
2017-04-23 11:30:00,69.5,76.7,29.85,NNW,337,6.2,8.5,92,0.00,,,0.00,,2017-04-23 15:30:00,
2017-04-23 11:35:00,69.9,76.7,29.84,North,0,6.1,7.8,92,0.00,,,0.00,,2017-04-23 15:35:00,
2017-04-23 11:40:00,70.2,76.7,29.85,North,0,3.3,5.1,91,0.00,,,0.00,,2017-04-23 15:40:00,
2017-04-23 11:45:00,70.3,76.7,29.85,NNE,22,4.8,5.6,90,0.00,,,0.00,,2017-04-23 15:45:00,
2017-04-23 11:50:00,70.5,76.7,29.84,NNE,22,8.1,11.2,90,0.00,,,0.00,,2017-04-23 15:50:00,
2017-04-23 11:55:00,70.6,76.7,29.84,NNE,22,9.0,11.4,90,0.00,,,0.00,,2017-04-23 15:55:00,
2017-04-23 12:00:00,69.7,76.7,29.84,NNE,22,12.8,15.4,90,0.00,,,0.00,,2017-04-23 16:00:00,
2017-04-23 12:05:00,69.7,76.7,29.84,North,0,11.0,12.5,91,0.00,,,0.00,,2017-04-23 16:05:00,
2017-04-23 12:10:00,69.7,76.7,29.84,NNE,22,9.6,12.8,91,0.00,,,0.00,,2017-04-23 16:10:00,
2017-04-23 12:15:00,70.1,76.7,29.84,NNE,22,7.7,9.2,91,0.00,,,0.00,,2017-04-23 16:15:00,
2017-04-23 12:20:00,71.1,76.6,29.84,NNE,22,6.5,7.4,91,0.00,,,0.00,,2017-04-23 16:20:00,
2017-04-23 12:25:00,71.3,76.6,29.84,NNE,22,3.7,5.1,91,0.00,,,0.00,,2017-04-23 16:25:00,
2017-04-23 12:30:00,71.5,76.7,29.84,NNE,22,6.5,7.8,90,0.00,,,0.00,,2017-04-23 16:30:00,
2017-04-23 12:35:00,71.5,76.6,29.83,North,0,5.7,6.9,90,0.00,,,0.00,,2017-04-23 16:35:00,
2017-04-23 12:40:00,70.8,76.7,29.83,NNE,22,8.6,11.2,89,0.00,,,0.00,,2017-04-23 16:40:00,
2017-04-23 12:45:00,71.0,76.7,29.83,North,0,7.3,8.5,89,0.00,,,0.00,,2017-04-23 16:45:00,
2017-04-23 12:50:00,71.4,76.6,29.82,NNE,22,8.2,9.4,89,0.00,,,0.00,,2017-04-23 16:50:00,
2017-04-23 12:55:00,71.8,76.6,29.82,NNE,22,4.9,5.6,90,0.00,,,0.00,,2017-04-23 16:55:00,
2017-04-23 13:00:00,71.9,76.7,29.82,NNE,22,5.8,7.2,89,0.00,,,0.00,,2017-04-23 17:00:00,
2017-04-23 13:05:00,71.5,76.7,29.82,North,0,6.7,6.9,89,0.00,,,0.00,,2017-04-23 17:05:00,
2017-04-23 13:10:00,71.9,76.8,29.81,NNE,22,6.0,8.3,90,0.00,,,0.00,,2017-04-23 17:10:00,
2017-04-23 13:15:00,72.5,76.7,29.81,NNE,22,9.7,11.9,90,0.00,,,0.00,,2017-04-23 17:15:00,
2017-04-23 13:20:00,72.6,76.8,29.81,NE,45,9.6,10.7,90,0.00,,,0.00,,2017-04-23 17:20:00,
2017-04-23 13:25:00,73.1,76.8,29.81,NNE,22,10.5,11.9,90,0.00,,,0.00,,2017-04-23 17:25:00,
2017-04-23 13:30:00,73.5,76.8,29.81,NE,45,9.9,13.9,90,0.00,,,0.00,,2017-04-23 17:30:00,
2017-04-23 13:35:00,73.6,76.9,29.80,NE,45,10.4,10.4,89,0.00,,,0.00,,2017-04-23 17:35:00,
2017-04-23 13:40:00,73.6,76.9,29.80,NNE,22,15.7,19.5,89,0.00,,,0.00,,2017-04-23 17:40:00,
2017-04-23 13:45:00,73.6,76.9,29.80,NE,45,11.5,19.2,89,0.00,,,0.00,,2017-04-23 17:45:00,
2017-04-23 13:50:00,73.8,77.0,29.80,NNE,22,9.3,16.1,88,0.00,,,0.00,,2017-04-23 17:50:00,
2017-04-23 13:55:00,74.2,77.0,29.79,NE,45,7.5,12.8,88,0.00,,,0.00,,2017-04-23 17:55:00,
2017-04-23 14:00:00,74.1,76.9,29.79,NE,45,10.4,13.0,87,0.00,,,0.00,,2017-04-23 18:00:00,
2017-04-23 14:05:00,74.2,77.0,29.79,ENE,67,12.1,14.1,87,0.00,,,0.00,,2017-04-23 18:05:00,
2017-04-23 14:10:00,74.3,77.0,29.79,NNE,22,9.7,11.4,87,0.00,,,0.00,,2017-04-23 18:10:00,
2017-04-23 14:15:00,74.2,77.0,29.79,NNE,22,12.3,17.2,86,0.00,,,0.00,,2017-04-23 18:15:00,
2017-04-23 14:20:00,73.8,77.0,29.79,NE,45,13.1,15.0,85,0.00,,,0.00,,2017-04-23 18:20:00,
2017-04-23 14:25:00,74.0,77.0,29.78,NE,45,12.0,15.7,86,0.00,,,0.00,,2017-04-23 18:25:00,
2017-04-23 14:30:00,74.1,76.9,29.77,NE,45,11.5,13.9,86,0.00,,,0.00,,2017-04-23 18:30:00,
2017-04-23 14:35:00,74.0,77.0,29.77,NNE,22,12.5,15.4,85,0.00,,,0.00,,2017-04-23 18:35:00,
2017-04-23 14:40:00,74.3,77.0,29.77,NNE,22,12.3,16.1,86,0.00,,,0.00,,2017-04-23 18:40:00,
2017-04-23 14:45:00,74.3,77.0,29.76,NE,45,9.3,11.4,86,0.00,,,0.00,,2017-04-23 18:45:00,
2017-04-23 14:51:00,74.4,77.0,29.76,NE,45,13.5,15.7,83,0.00,,,0.00,,2017-04-23 18:51:00,
2017-04-23 14:55:00,74.0,77.0,29.76,NE,45,11.6,18.8,83,0.00,,,0.00,,2017-04-23 18:55:00,
2017-04-23 15:00:00,74.3,76.9,29.75,NNE,22,10.9,12.5,83,0.00,,,0.00,,2017-04-23 19:00:00,
2017-04-23 15:05:00,74.3,76.9,29.75,NNE,22,10.7,15.9,83,0.00,,,0.00,,2017-04-23 19:05:00,
2017-04-23 15:10:00,74.3,76.9,29.75,NE,45,9.9,11.2,83,0.00,,,0.00,,2017-04-23 19:10:00,
2017-04-23 15:15:00,74.4,76.9,29.75,NE,45,9.3,15.9,83,0.00,,,0.00,,2017-04-23 19:15:00,
2017-04-23 15:20:00,74.4,76.9,29.74,NNE,22,9.8,10.3,83,0.00,,,0.00,,2017-04-23 19:20:00,
2017-04-23 15:25:00,74.6,76.9,29.74,NNE,22,7.8,9.6,83,0.00,,,0.00,,2017-04-23 19:25:00,
2017-04-23 15:30:00,74.5,76.9,29.74,NE,45,11.5,11.5,83,0.00,,,0.00,,2017-04-23 19:30:00,
2017-04-23 15:35:00,74.4,76.9,29.73,North,0,14.2,18.3,83,0.00,,,0.00,,2017-04-23 19:35:00,
2017-04-23 15:40:00,74.5,76.9,29.73,NNE,22,8.2,8.2,84,0.00,,,0.00,,2017-04-23 19:40:00,
2017-04-23 15:45:00,74.4,76.9,29.73,NNE,22,10.6,13.6,84,0.00,,,0.00,,2017-04-23 19:45:00,
2017-04-23 15:50:00,74.3,76.9,29.72,NNE,22,10.0,15.2,84,0.00,,,0.00,,2017-04-23 19:50:00,
2017-04-23 15:56:00,74.1,76.9,29.72,NNE,22,10.3,11.9,84,0.00,,,0.00,,2017-04-23 19:56:00,
2017-04-23 16:01:00,73.8,76.9,29.71,NNE,22,11.6,16.1,84,0.00,,,0.00,,2017-04-23 20:01:00,
2017-04-23 16:06:00,73.9,76.9,29.71,North,0,9.8,11.4,84,0.00,,,0.00,,2017-04-23 20:06:00,
2017-04-23 16:11:00,74.2,76.9,29.71,NNE,22,10.6,13.0,84,0.00,,,0.00,,2017-04-23 20:11:00,
2017-04-23 16:16:00,74.4,76.9,29.70,NE,45,10.4,14.8,84,0.00,,,0.00,,2017-04-23 20:16:00,
2017-04-23 16:21:00,74.4,76.9,29.70,North,0,11.3,14.1,84,0.00,,,0.00,,2017-04-23 20:21:00,
2017-04-23 16:26:00,74.4,76.9,29.70,NNE,22,10.5,13.0,84,0.00,,,0.00,,2017-04-23 20:26:00,
2017-04-23 16:31:00,75.1,76.9,29.70,North,0,9.8,15.4,85,0.00,,,0.00,,2017-04-23 20:31:00,
2017-04-23 16:36:00,75.0,76.9,29.70,NNE,22,12.7,16.6,84,0.00,,,0.00,,2017-04-23 20:36:00,
2017-04-23 16:41:00,75.9,76.9,29.70,NNE,22,8.4,12.8,84,0.00,,,0.00,,2017-04-23 20:41:00,
2017-04-23 16:46:00,75.9,76.9,29.71,North,0,9.4,11.2,83,0.00,,,0.00,,2017-04-23 20:46:00,
2017-04-23 16:51:00,76.5,76.9,29.71,North,0,4.6,8.1,83,0.00,,,0.00,,2017-04-23 20:51:00,
2017-04-23 16:56:00,77.1,76.9,29.71,NE,45,7.3,9.2,83,0.00,,,0.00,,2017-04-23 20:56:00,